{"data":{"norad_id":82893,"epoch":"2026-05-23T07:14:35.741184Z","epoch_age_seconds":224921,"freshness":"STALE","line1":"1 82893U          26143.30180256  .00005359  00000+0  19160-2 0  9991","line2":"2 82893  98.9655 268.9828 0020753 286.7439  73.1467 14.34384219447117","mean_motion":14.34384219,"eccentricity":0.0020753,"inclination_deg":98.9655,"raan_deg":268.9828,"arg_perigee_deg":286.7439,"mean_anomaly_deg":73.1467,"bstar":0.001916,"rev_number":44711,"period_min":100.39151162747,"perigee_km":762.26420260632,"apogee_km":791.96278530653,"semimajor_km":7155.2504939564,"source":"CELESTRAK","updated_at":"2026-05-25T13:38:11.197269Z"}}